METAR AND TAF INFORMATION
METAR FOR LGSY
ADDS - METARS form results

(0157 UTC 12 November 2019)
Data provider http://aviationweather.gov/metar/data/
 
Forecast for: LGSY (SKIROS , GR)
Text: TAF LGSY 112300Z 1200/1209 12010KT 9999 SCT018
Forecast period: 0000 to 0900 UTC 12 November 2019
Forecast type: FROM: standard forecast or significant change
Winds: from the ESE (120 degrees) at 12 MPH (10 knots; 5.1 m/s)
Visibility: 6 or more miles 10+ km)
Ceiling: at least 12,000 feet AGL
Clouds: scattered clouds at 1800 feet AGL
Weather: no significant weather forecast for this period

 ΧΑΡΤΗΣ ΑΕΡΟΔΡΟΜΙΟΥ

 RUNWAY INFORMATION
Διάδρομος 18 Runway length 9849 ft Runway width 98 ft
Runway elevation 14 ft Runway displaced threshold 541 ft Runway heading 176
Διάδρομος 36 Runway length 9849 ft Runway width 98 ft
Runway elevation 39 ft Runway displaced threshold 2625 ft Runway heading 356

 ΣΥΧΝΟΤΗΤΕΣ ΑΕΡΟΔΡΟΜΙΟΥ
Τύπος A/G Όνομα RDO Συχνότητα 563.7 MHZ
Τύπος APP Όνομα APP Συχνότητα 123.2 MHZ
Τύπος TWR Όνομα TWR Συχνότητα 123.2 MHZ

 AIRPORT NEAR NAVIGATION AIDS
Τύπος VOR-DME Όνομα Skiros Συχνότητα 116600 KHZ
Τύπος TACAN Όνομα Skyros Συχνότητα 116100 KHZ



Hellenic Air Force Virtual - All rights reserved 2019 - Powered by VAM